Tracking 19903 objects as of 16-Oct-2019
HD Live streaming from Space Station
objects crossing your sky now

FENGYUN 1C DEB

Track FENGYUN 1C DEB now!
10-day predictions


NORAD ID: 31073
Int'l Code: 1999-025BFT
Perigee: 823.6 km
Apogee: 904.6 km
Inclination: 99.1 °
Period: 102.1 minutes
Semi major axis: 7235 km
RCS: 0.0164 m2 (small)
Launch date: May 10, 1999
Source: People's Republic of China (PRC)
Launch site: Taiyaun Space Center, China (TSC)

Note: This is SATELLITE DEBRIS
aabbcc
Your satellite tracking list
Your tracking list is empty




NASA's NSSDC Master Catalog

Two Line Element Set (TLE):
1 31073U 99025BFT 19288.09355940  .00000821  00000-0  47788-3 0  9990
2 31073  99.0848  39.6331 0055976 144.4334 216.0587 14.10695997653031
Source of the keplerian elements: AFSPC